User: anonymous   Login
Location: ?????????
(38.0736°N, 23.2119°E)
Time: 08:42:59
(UTC+00:00)
Language:

Cosmos 371 Rocket - Orbit

View from above orbital plane
View from above orbital plane
View from above satellite
View from above satellite

Ground track
Ground track

The orbit data is extracted from the following two-line orbital elements,

1 04579U 70083B   24164.70345912  .00000930  00000-0  19159-3 0  9991
2 04579  74.0020 245.9439 0010670 344.6387  15.4454 14.61975190847392
Epoch (UTC): 12 June 2024 16:52:58
Eccentricity: 0.0010670
inclination: 74.0020°
perigee height: 679 km
apogee height: 694 km
right ascension of ascending node: 245.9439°
argument of perigee: 344.6387°
revolutions per day: 14.61975190
mean anomaly at epoch: 15.4454°
orbit number at epoch: 84739

The dashed part of the orbit path shows where the satellite is in the earth's shadow,  

DLR